Regional Weather Roundup
Issued by NWS

Home | Current Version | Previous Version | Text Only | Print | Product List | Glossary Off
Versions: 1 2 3 4 5 6 7 8 9 10 11 12 13 14 15 16 17 18 19 20 21 22 23 24 25 26 27 28 29 30 31 32 33 34 35 36 37 38 39 40 41 42 43 44 45 46 47 48 49 50

000
ASUS43 KLSX 252259
RWRMO

WEATHER SUMMARY FOR MISSOURI
NATIONAL WEATHER SERVICE SPRINGFIELD MO
600 PM CDT SAT OCT 25 2014

NOTE: "FAIR" INDICATES FEW OR NO CLOUDS BELOW 12,000 FEET WITH NO
       SIGNIFICANT WEATHER AND/OR OBSTRUCTIONS TO VISIBILITY.
       CURRENT SKY AND/OR WEATHER CONDITIONS ARE NOT AVAILABLE FOR
       CHILLICOTHE AND FARMINGTON.

MOZ001>031-035>038-043-044-053-054-260000-
...NORTHERN AND WESTERN MISSOURI...

CITY           SKY/WX    TMP DP  RH WIND       PRES   REMARKS
KANSAS CTY INT CLEAR     75  55  49 E5        30.02S
KANSAS C DTWN  CLEAR     77  54  44 E5        30.00S
LEE`S SUMMIT   CLEAR     77  58  51 NE3       30.02S
ST JOSEPH      CLEAR     76  49  38 E5        30.02S
KIRKSVILLE     CLEAR     68  50  52 NE6       30.04F

$$
MOZ066>068-077>081-088>096-101>105-260000-
...SOUTHWEST MISSOURI...

CITY           SKY/WX    TMP DP  RH WIND       PRES   REMARKS
SPRINGFIELD    CLEAR     80  63  55 CALM      30.04S
JOPLIN         CLEAR     79  64  60 SW5       30.03S

$$
MOZ032>034-039>042-045>050-055>058-069>072-260000-
...CENTRAL MISSOURI...

CITY           SKY/WX    TMP DP  RH WIND       PRES   REMARKS
COLUMBIA       CLEAR     76  54  46 N5        30.02S
JEFFERSON CITY CLEAR     80  55  42 CALM      30.01S
ROLLA          CLEAR     76  58  53 CALM      30.02F
SEDALIA        CLEAR     76  59  55 NE5       30.03S
OSAGE BEACH    CLEAR     79  61  53 CALM      30.02S

$$
MOZ051-052-059>065-260000-
...EAST CENTRAL MISSOURI...

CITY           SKY/WX    TMP DP  RH WIND       PRES   REMARKS
ST LOUIS INTL  CLEAR     76  55  48 N3        30.01S
SPIRIT OF STL  CLEAR     69  59  70 CALM      30.00S
ST CHARLES     CLEAR     76  45  33 CALM      30.00R HAZE

$$
MOZ072>076-082>087-097>100-106>115-260000-
...SOUTH CENTRAL AND SOUTHEAST MISSOURI...

CITY           SKY/WX    TMP DP  RH WIND       PRES   REMARKS
CAPE GIRARDEAU CLEAR     77  58  51 CALM      30.00R
FARMINGTON     CLEAR     79  55  44 CALM      30.05R
POPLAR BLUFF   CLEAR     77  65  66 CALM      29.99S HAZE
WEST PLAINS    CLEAR     79  59  50 CALM      30.04S

$$



USA.gov is the U.S. government's official web portal to all federal, state and local government web resources and services.